KI4NG Weather Reports


time (UTC)temp
F
wind
direction
speed
knots
gust
knots
rain 1hr
in
rain 24hr
in
rain mn
in
humidity
%
barometer
mb
20260906052942 74 252 2.6 2.6 0.00 0.00 0.00 98 1015.3
20260906052438 74 171 0.0 0.0 0.00 0.00 0.00 98 1015.5
20260906051935 74 217 2.6 2.6 0.00 0.00 0.00 99 1015.5
20260906051430 73 169 0.9 0.9 0.00 0.00 0.00 98 1015.3
20260906050926 73 174 0.9 1.7 0.00 0.00 0.00 98 1015.3
20260906050425 73 163 1.7 1.7 0.00 0.00 0.00 97 1015.3
20260906045924 73 160 1.7 1.7 0.00 0.00 0.00 97 1015.3
20260906045423 73 173 1.7 1.7 0.00 0.00 0.00 97 1015.1
20260906044919 73 161 0.9 1.7 0.00 0.00 0.00 97 1015.3
20260906044414 73 159 1.7 1.7 0.00 0.00 0.00 98 1015.3
20260906043910 73 159 0.9 1.7 0.00 0.00 0.00 97 1015.4
20260906043406 73 146 1.7 1.7 0.00 0.00 0.00 97 1015.4
20260906042901 73 159 1.7 1.7 0.00 0.00 0.00 97 1015.3
20260906042400 73 148 0.9 0.9 0.00 0.00 0.00 97 1015.2
20260906041855 73 166 1.7 1.7 0.00 0.00 0.00 96 1015.3
20260906041351 73 152 0.9 0.9 0.00 0.00 0.00 97 1015.3
20260906040845 73 166 0.9 1.7 0.00 0.00 0.00 96 1015.4
20260906040341 73 156 0.9 0.9 0.00 0.00 0.00 96 1015.7
20260906035836 73 167 0.9 1.7 0.00 0.01 0.01 95 1015.4
20260906035331 73 165 0.9 1.7 0.00 0.01 0.01 95 1015.7
20260906034826 73 156 1.7 1.7 0.00 0.01 0.01 95 1015.7
20260906034321 74 153 1.7 1.7 0.00 0.01 0.01 94 1015.7
20260906033817 74 159 0.9 1.7 0.00 0.01 0.01 93 1015.5
20260906033316 74 153 0.9 0.9 0.00 0.01 0.01 91 1015.2
20260906032812 74 140 0.9 0.9 0.00 0.01 0.01 93 1015.3
20260906032308 73 125 0.9 1.7 0.00 0.01 0.01 93 1015.3
20260906031803 73 143 1.7 1.7 0.00 0.01 0.01 94 1015.2
20260906031259 75 152 1.7 1.7 0.00 0.01 0.01 90 1015.2
20260906030758 76 147 0.0 0.0 0.00 0.01 0.01 85 1015.1
20260906030254 77 147 0.0 0.0 0.00 0.01 0.01 83 1015.2
20260906025753 76 135 0.0 0.0 0.00 0.01 0.01 84 1015.3
20260906025248 76 135 0.0 0.0 0.00 0.01 0.01 85 1015.5
20260906024747 76 132 0.0 0.0 0.00 0.01 0.01 84 1015.6
20260906024245 76 143 0.0 0.0 0.00 0.01 0.01 83 1015.5
20260906023741 76 143 0.0 0.0 0.00 0.01 0.01 83 1015.4
20260906023237 76 143 0.0 0.0 0.00 0.01 0.01 83 1015.4
20260906022732 76 143 0.0 0.0 0.00 0.01 0.01 84 1015.1
20260906022227 76 143 0.0 0.0 0.00 0.01 0.01 84 1015.3
20260906021723 77 143 0.0 0.0 0.00 0.01 0.01 84 1015.1
20260906021222 77 134 0.0 0.0 0.00 0.01 0.01 85 1014.8
20260906020717 76 134 0.0 0.0 0.00 0.01 0.01 85 1015.2
20260906020212 77 134 0.0 0.0 0.00 0.01 0.01 84 1014.9
20260906015706 76 126 0.0 0.9 0.00 0.01 0.01 84 1014.8
20260906015205 76 144 0.0 0.0 0.00 0.01 0.01 84 1014.8
20260906014705 76 144 0.0 0.0 0.00 0.01 0.01 84 1014.8
20260906014201 76 138 0.0 0.0 0.00 0.01 0.01 84 1015.0
20260906013657 76 138 0.0 0.0 0.00 0.01 0.01 83 1014.9
20260906013151 76 139 0.0 0.0 0.00 0.01 0.01 86 1014.9
20260906012651 76 138 0.0 0.0 0.00 0.01 0.01 86 1015.0
20260906012145 77 139 0.0 0.0 0.00 0.01 0.01 86 1014.5
20260906011642 77 167 0.0 0.0 0.00 0.01 0.01 84 1014.6
20260906011136 77 112 1.7 1.7 0.00 0.01 0.01 84 1014.7
20260906010626 77 135 0.0 0.0 0.00 0.01 0.01 83 1014.6
20260906010123 77 114 0.0 0.0 0.00 0.01 0.01 83 1014.5
20260906005622 77 152 0.0 0.0 0.00 0.01 0.01 87 1014.5
20260906005121 77 150 0.0 0.0 0.00 0.01 0.01 87 1014.7
20260906004620 77 133 0.0 0.0 0.00 0.01 0.01 88 1014.6
20260906004115 77 148 0.0 0.0 0.00 0.01 0.01 91 1014.6
20260906003610 77 141 0.0 0.0 0.00 0.01 0.01 90 1014.6
20260906003106 78 136 0.0 0.0 0.00 0.01 0.01 89 1014.7
20260906002601 79 137 0.0 0.0 0.00 0.01 0.01 88 1015.0
20260906002056 81 133 0.0 0.0 0.00 0.01 0.01 83 1014.9
20260906001551 82 52 2.6 2.6 0.00 0.01 0.01 77 1014.6
20260906001045 82 29 2.6 2.6 0.00 0.01 0.01 77 1014.6
20260906000541 83 169 0.0 0.0 0.00 0.01 0.01 77 1014.7
20260906000036 83 128 0.0 0.0 0.00 0.01 0.01 76 1014.5
20260905235530 83 128 0.0 0.0 0.00 0.01 0.01 75 1014.7
20260905235025 84 128 0.0 0.0 0.00 0.01 0.01 74 1014.8
20260905234520 84 128 0.0 0.0 0.00 0.01 0.01 73 1014.8
20260905234015 85 128 0.0 0.0 0.00 0.01 0.01 73 1014.7
20260905233510 86 161 0.0 0.0 0.00 0.01 0.01 71 1014.8
20260905233009 86 115 1.7 1.7 0.00 0.01 0.01 69 1014.6
20260905232505 87 133 0.0 0.9 0.00 0.01 0.01 69 1014.7
20260905232001 87 115 0.9 0.9 0.00 0.01 0.01 67 1014.8
20260905231456 87 199 0.9 0.9 0.00 0.01 0.01 69 1014.7
20260905230952 87 136 0.0 0.9 0.00 0.01 0.01 68 1014.8
20260905230450 87 146 0.9 0.9 0.00 0.01 0.01 68 1014.8
20260905225949 87 146 0.9 0.9 0.00 0.01 0.01 66 1014.7
20260905225444 88 136 0.0 0.0 0.00 0.01 0.01 66 1014.7
20260905224939 88 130 1.7 1.7 0.00 0.01 0.01 64 1014.7
20260905224435 88 113 0.9 0.9 0.00 0.01 0.01 63 1014.6
20260905223933 89 283 0.9 2.6 0.00 0.01 0.01 63 1014.6
20260905223432 90 127 0.9 1.7 0.00 0.01 0.01 62 1014.5
20260905222927 90 119 0.9 0.9 0.00 0.01 0.01 61 1014.5
20260905222426 90 145 0.0 0.9 0.00 0.01 0.01 61 1014.7
20260905221922 90 20 1.7 2.6 0.00 0.01 0.01 61 1014.4
20260905221419 91 129 0.9 0.9 0.00 0.01 0.01 61 1014.6
20260905220915 92 20 1.7 2.6 0.00 0.01 0.01 60 1014.6
20260905220410 92 187 0.9 0.9 0.00 0.01 0.01 60 1014.6
20260905215909 91 327 1.7 1.7 0.00 0.01 0.01 60 1014.5
20260905215405 91 45 2.6 2.6 0.00 0.01 0.01 60 1014.6
20260905214901 91 157 0.9 1.7 0.00 0.01 0.01 60 1014.3
20260905214357 91 185 2.6 2.6 0.00 0.01 0.01 60 1014.6
20260905213851 91 32 4.3 5.2 0.00 0.01 0.01 59 1014.6
20260905213348 92 292 2.6 2.6 0.00 0.01 0.01 61 1014.4
20260905212848 93 142 0.9 0.9 0.00 0.01 0.01 58 1014.6
20260905212342 93 146 1.7 1.7 0.00 0.01 0.01 59 1014.6
20260905211842 93 189 1.7 2.6 0.00 0.01 0.01 58 1014.7
20260905211338 91 307 1.7 2.6 0.00 0.01 0.01 61 1014.8
20260905210834 91 94 1.7 2.6 0.00 0.01 0.01 61 1014.7
20260905210334 90 96 0.9 1.7 0.00 0.01 0.01 63 1014.8
20260905205833 90 124 0.0 0.9 0.00 0.01 0.01 63 1014.8
20260905205327 88 158 1.7 1.7 0.00 0.01 0.01 67 1014.7
20260905204827 89 67 0.9 1.7 0.00 0.01 0.01 66 1014.9
20260905204323 90 79 0.0 0.9 0.00 0.01 0.01 64 1014.9
20260905203821 89 291 2.6 2.6 0.00 0.01 0.01 65 1015.0
20260905203318 89 291 0.9 1.7 0.00 0.01 0.01 65 1014.9
20260905202813 90 202 1.7 1.7 0.00 0.01 0.01 64 1014.9
20260905202308 90 333 3.5 4.3 0.00 0.01 0.01 63 1014.9
20260905201803 90 146 1.7 1.7 0.00 0.01 0.01 63 1014.7
20260905201259 91 1 2.6 4.3 0.00 0.01 0.01 63 1014.8
20260905200753 92 256 2.6 4.3 0.00 0.01 0.01 61 1014.8
20260905200249 93 118 1.7 1.7 0.00 0.01 0.01 61 1015.0
20260905195747 93 150 0.9 0.9 0.00 0.01 0.01 59 1015.1
20260905195242 93 80 1.7 1.7 0.00 0.01 0.01 59 1015.6
20260905194738 93 138 0.9 0.9 0.00 0.01 0.01 60 1015.5
20260905194237 92 117 0.0 0.9 0.00 0.01 0.01 62 1015.5
20260905193731 92 144 1.7 1.7 0.00 0.01 0.01 61 1015.7
20260905193226 92 182 1.7 2.6 0.00 0.01 0.01 60 1015.9
20260905192721 93 151 0.9 1.7 0.00 0.01 0.01 59 1015.7
20260905192218 92 97 0.9 1.7 0.00 0.01 0.01 65 1015.7
20260905191717 91 130 0.9 0.9 0.00 0.01 0.01 64 1015.7
20260905191215 91 147 0.0 0.0 0.00 0.01 0.01 62 1016.0
20260905190714 92 147 1.7 1.7 0.00 0.01 0.01 62 1016.0
20260905190213 91 164 0.9 0.9 0.00 0.01 0.01 65 1016.1
20260905185712 92 185 0.9 1.7 0.00 0.01 0.01 64 1015.9
20260905185207 92 104 3.5 4.3 0.00 0.01 0.01 63 1015.9
20260905184701 91 195 0.9 2.6 0.00 0.01 0.01 64 1016.0
20260905184200 90 237 1.7 1.7 0.00 0.01 0.01 66 1016.2
20260905183700 90 174 3.5 4.3 0.00 0.01 0.01 68 1016.0
20260905183155 90 151 0.9 1.7 0.00 0.01 0.01 67 1016.5
20260905182655 89 111 0.9 0.9 0.00 0.01 0.01 65 1016.5
20260905182154 90 27 2.6 2.6 0.00 0.01 0.01 67 1016.6
20260905181650 89 160 1.7 1.7 0.00 0.01 0.01 71 1016.6
20260905181149 87 272 1.7 1.7 0.00 0.01 0.01 70 1016.8
20260905180643 88 301 2.6 4.3 0.00 0.01 0.01 70 1017.0
20260905180139 90 71 0.9 0.9 0.00 0.01 0.01 68 1016.7
20260905175638 88 143 0.0 0.0 0.00 0.01 0.01 70 1016.7
20260905175134 89 308 3.5 4.3 0.00 0.01 0.01 71 1016.9
20260905174629 88 223 2.6 2.6 0.00 0.01 0.01 73 1016.9
20260905174125 87 148 0.0 0.9 0.00 0.01 0.01 72 1016.9
20260905173621 88 167 1.7 2.6 0.00 0.01 0.01 71 1017.0
20260905173116 87 190 0.0 0.9 0.00 0.01 0.01 71 1016.9
20260905172615 87 117 2.6 2.6 0.00 0.01 0.01 72 1016.8
20260905172110 86 192 0.9 0.9 0.00 0.01 0.01 74 1016.9
20260905171606 86 156 0.9 0.9 0.00 0.01 0.01 75 1016.9
20260905171102 86 140 1.7 1.7 0.00 0.01 0.01 76 1017.1
20260905170558 85 125 0.9 1.7 0.00 0.01 0.01 81 1017.3
20260905170054 85 167 0.9 1.7 0.00 0.01 0.01 77 1017.2
20260905165548 85 102 2.6 2.6 0.00 0.01 0.01 80 1017.5
20260905165043 84 137 2.6 4.3 0.00 0.01 0.01 80 1017.6
20260905164544 83 132 0.0 0.9 0.00 0.01 0.01 80 1017.4
20260905164038 82 102 0.9 0.9 0.00 0.01 0.01 85 1017.4
20260905163534 81 118 0.9 0.9 0.00 0.01 0.01 92 1017.7
20260905163030 79 147 0.9 0.9 0.00 0.01 0.01 92 1017.6
20260905162527 78 136 0.9 1.7 0.00 0.01 0.01 94 1017.8
20260905162021 77 139 0.0 0.0 0.00 0.01 0.01 95 1017.8
20260905161520 77 139 0.0 0.0 0.00 0.01 0.01 95 1017.7
20260905161018 77 140 0.0 0.0 0.00 0.01 0.01 96 1017.6
20260905160511 78 138 0.0 0.0 0.00 0.01 0.01 95 1017.9
20260905160006 78 122 0.0 0.9 0.00 0.01 0.01 95 1018.0
20260905155506 78 153 0.0 0.9 0.07 0.01 0.01 92 1018.0
20260905155004 80 154 0.9 0.9 0.07 0.01 0.01 89 1018.0
20260905154500 82 183 0.9 0.9 0.00 0.00 0.00 84 1018.2
20260905153955 83 184 2.6 2.6 0.00 0.00 0.00 79 1017.9
20260905153452 85 106 2.6 5.2 0.00 0.00 0.00 77 1018.0
20260905152951 85 73 2.6 4.3 0.00 0.00 0.00 78 1017.9
20260905152451 86 179 0.9 1.7 0.00 0.00 0.00 76 1017.6
20260905151946 85 75 0.9 1.7 0.00 0.00 0.00 78 1017.5
20260905151441 84 128 0.0 0.0 0.00 0.00 0.00 80 1017.6
20260905150936 83 135 0.0 0.0 0.00 0.00 0.00 80 1017.5
20260905150437 83 141 0.0 0.9 0.00 0.00 0.00 81 1017.6
20260905145933 82 171 0.9 0.9 0.00 0.00 0.00 82 1017.5
20260905145433 82 187 0.9 0.9 0.00 0.00 0.00 83 1017.8
20260905144927 82 139 0.9 0.9 0.00 0.00 0.00 82 1017.8
20260905144423 82 157 0.0 0.9 0.00 0.00 0.00 82 1017.8
20260905143921 82 157 1.7 1.7 0.00 0.00 0.00 84 1017.5
20260905143415 81 179 0.9 0.9 0.00 0.00 0.00 84 1017.6
20260905142915 81 152 0.0 0.9 0.00 0.00 0.00 84 1017.5
20260905142414 80 199 2.6 2.6 0.00 0.00 0.00 84 1017.7
20260905141910 79 152 0.9 1.7 0.00 0.00 0.00 87 1017.4
20260905141404 79 168 0.9 1.7 0.00 0.00 0.00 87 1017.5
20260905140901 78 153 0.9 0.9 0.00 0.00 0.00 88 1017.6
20260905140355 78 176 1.7 1.7 0.00 0.00 0.00 89 1017.6
20260905135854 78 148 1.7 1.7 0.00 0.00 0.00 89 1017.7
20260905135350 78 149 0.9 1.7 0.00 0.00 0.00 88 1017.8
20260905134845 78 149 0.9 1.7 0.00 0.00 0.00 89 1017.7
20260905134344 76 200 2.6 2.6 0.00 0.00 0.00 91 1017.7
20260905133838 75 152 0.9 0.9 0.00 0.00 0.00 94 1017.6
20260905133334 75 164 1.7 1.7 0.00 0.00 0.00 93 1017.7
20260905132833 75 147 1.7 1.7 0.00 0.00 0.00 94 1018.0
20260905132329 75 169 1.7 1.7 0.00 0.00 0.00 94 1018.1
20260905131823 74 168 0.9 0.9 0.00 0.00 0.00 95 1018.0
20260905131319 73 156 0.9 0.9 0.00 0.00 0.00 96 1018.0
20260905130814 73 164 1.7 1.7 0.00 0.00 0.00 96 1017.8
20260905130312 73 165 1.7 1.7 0.00 0.00 0.00 96 1018.0
20260905125808 73 153 0.9 0.9 0.00 0.00 0.00 95 1018.2
20260905125305 73 162 0.9 0.9 0.00 0.00 0.00 96 1018.2
20260905124759 72 163 1.7 1.7 0.00 0.00 0.00 96 1018.1
20260905124254 72 160 0.9 1.7 0.00 0.00 0.00 97 1018.2
20260905123749 72 162 1.7 1.7 0.00 0.00 0.00 97 1018.1
20260905123247 72 165 1.7 1.7 0.00 0.00 0.00 97 1017.8
20260905122746 72 158 1.7 1.7 0.00 0.00 0.00 97 1017.8
20260905122240 71 163 1.7 1.7 0.00 0.00 0.00 98 1017.9
20260905121736 71 155 0.9 1.7 0.00 0.00 0.00 98 1017.9
20260905121232 71 160 1.7 1.7 0.00 0.00 0.00 98 1018.1
20260905120730 71 148 0.9 1.7 0.00 0.00 0.00 98 1017.9
20260905120225 71 158 0.9 1.7 0.00 0.00 0.00 99 1017.9
20260905115720 71 148 0.9 1.7 0.00 0.00 0.00 99 1017.6
20260905115220 71 150 0.9 0.9 0.00 0.00 0.00 99 1017.7
20260905114715 71 160 0.9 1.7 0.00 0.00 0.00 99 1017.5
20260905114213 71 156 1.7 1.7 0.00 0.00 0.00 98 1017.5
20260905113713 71 158 0.9 1.7 0.00 0.00 0.00 98 1017.5
20260905113209 71 164 1.7 1.7 0.00 0.00 0.00 99 1017.5
20260905112708 71 157 0.0 0.0 0.00 0.00 0.00 99 1017.6
20260905112204 71 163 0.9 0.9 0.00 0.00 0.00 99 1017.4
20260905111704 71 166 0.9 1.7 0.00 0.00 0.00 98 1017.3
20260905111203 71 163 0.9 0.9 0.00 0.00 0.00 98 1017.1
20260905110703 71 165 0.9 0.9 0.00 0.00 0.00 98 1017.1
20260905110157 71 166 0.9 1.7 0.00 0.00 0.00 98 1017.2
20260905105653 71 165 0.9 0.9 0.00 0.00 0.00 98 1016.9
20260905105151 71 161 0.9 1.7 0.00 0.00 0.00 97 1016.8
20260905104647 71 159 0.9 0.9 0.00 0.00 0.00 98 1016.6
20260905104142 71 154 0.9 0.9 0.00 0.00 0.00 98 1016.9
20260905103638 71 158 0.9 0.9 0.00 0.00 0.00 97 1017.0
20260905103133 71 153 0.9 0.9 0.00 0.00 0.00 98 1016.6
20260905102629 71 157 0.9 0.9 0.00 0.00 0.00 98 1016.6
20260905102126 71 158 0.0 0.0 0.00 0.00 0.00 99 1016.7
20260905101624 71 150 0.0 0.0 0.00 0.00 0.00 99 1016.6
20260905101122 71 158 0.0 0.0 0.00 0.00 0.00 99 1016.7
20260905100618 71 155 0.0 0.0 0.00 0.00 0.00 98 1016.6
20260905100114 71 157 0.0 0.0 0.00 0.00 0.00 98 1016.7
20260905095607 71 152 0.0 0.0 0.00 0.00 0.00 97 1016.6
20260905095102 71 156 0.0 0.0 0.00 0.00 0.00 97 1016.6
20260905094558 72 155 0.0 0.0 0.00 0.00 0.00 97 1016.5
20260905094057 72 158 0.9 0.9 0.00 0.00 0.00 96 1016.7
20260905093557 72 158 0.9 0.9 0.00 0.00 0.00 96 1016.7
20260905093054 72 157 0.9 0.9 0.00 0.00 0.00 96 1016.7
20260905092553 72 158 0.9 0.9 0.00 0.00 0.00 96 1016.6
20260905092049 72 156 0.9 0.9 0.00 0.00 0.00 96 1016.7
20260905091548 72 152 0.9 0.9 0.00 0.00 0.00 97 1016.6
20260905091043 72 159 0.9 0.9 0.00 0.00 0.00 96 1016.5
20260905090542 72 174 1.7 1.7 0.00 0.00 0.00 96 1016.4
20260905090038 72 160 1.7 1.7 0.00 0.00 0.00 96 1016.6
20260905085536 72 152 0.0 0.9 0.00 0.00 0.00 96 1016.4
20260905085033 71 162 2.6 2.6 0.00 0.00 0.00 97 1016.4
20260905084532 71 169 1.7 1.7 0.00 0.00 0.00 97 1016.5
20260905084027 71 160 0.9 0.9 0.00 0.00 0.00 97 1016.2
20260905083522 71 152 1.7 1.7 0.00 0.00 0.00 97 1016.5
20260905083019 71 168 0.9 0.9 0.00 0.00 0.00 97 1016.1
20260905082514 71 159 1.7 1.7 0.00 0.00 0.00 97 1016.6
20260905082009 71 169 1.7 1.7 0.00 0.00 0.00 97 1016.6
20260905081509 71 165 1.7 1.7 0.00 0.00 0.00 97 1016.5
20260905081003 71 165 1.7 1.7 0.00 0.00 0.00 97 1016.6
20260905080458 71 164 1.7 1.7 0.00 0.00 0.00 97 1016.4
20260905075956 71 159 0.9 0.9 0.00 0.00 0.00 96 1016.5
20260905075451 71 162 0.9 0.9 0.00 0.00 0.00 96 1016.5
20260905074950 71 165 0.9 0.9 0.00 0.00 0.00 96 1016.6
20260905074446 71 159 0.9 0.9 0.00 0.00 0.00 96 1016.8
20260905073941 72 154 0.9 0.9 0.00 0.00 0.00 96 1016.8
20260905073436 72 165 0.9 0.9 0.00 0.00 0.00 96 1016.9
20260905072932 72 181 0.9 1.7 0.00 0.00 0.00 96 1016.7
20260905072427 72 161 1.7 1.7 0.00 0.00 0.00 95 1016.9
20260905071923 72 156 0.9 1.7 0.00 0.00 0.00 95 1017.0
20260905071420 72 159 0.9 0.9 0.00 0.00 0.00 94 1017.1
20260905070918 72 160 0.0 0.0 0.00 0.00 0.00 95 1017.1
20260905070415 72 163 0.0 0.0 0.00 0.00 0.00 95 1016.9
20260905065914 72 158 0.0 0.0 0.00 0.00 0.00 96 1017.1
20260905065413 72 160 0.0 0.0 0.00 0.00 0.00 95 1017.3
20260905064908 72 159 0.0 0.0 0.00 0.00 0.00 96 1017.1
20260905064403 72 157 0.0 0.0 0.00 0.00 0.00 95 1017.2
20260905063902 73 152 0.0 0.0 0.00 0.00 0.00 95 1017.3
20260905063352 73 157 0.0 0.0 0.00 0.00 0.00 94 1017.3
20260905062848 73 152 0.0 0.0 0.00 0.00 0.00 94 1017.3
20260905062343 73 161 0.0 0.0 0.00 0.00 0.00 93 1017.5
20260905061837 73 159 0.0 0.0 0.00 0.00 0.00 92 1017.2
20260905061332 73 161 0.9 0.9 0.00 0.00 0.00 93 1017.7
20260905060826 73 158 0.9 0.9 0.00 0.00 0.00 92 1017.4
20260905060323 73 163 0.0 0.0 0.00 0.00 0.00 93 1017.6
20260905055822 73 155 0.0 0.0 0.00 0.00 0.00 93 1017.5
20260905055317 73 159 0.0 0.0 0.00 0.00 0.00 93 1017.7
20260905054817 73 156 0.0 0.0 0.00 0.00 0.00 93 1017.6
20260905054313 73 156 0.0 0.0 0.00 0.00 0.00 93 1017.7
20260905053812 73 156 0.0 0.0 0.00 0.00 0.00 93 1017.7
20260905053308 74 156 0.0 0.0 0.00 0.00 0.00 93 1017.8